Weather History for New Philadelphia, OH

Change the Weather History Date:

Saturday, July 28, 2012

  Actual Average Record
Temperature  
Mean Temperature 73 °F 73 °F  
Max Temperature 80 °F 84 °F 96 °F (1964)
Min Temperature 65 °F 62 °F 44 °F (1962)
Degree Days  
Heating Degree Days 0 0  
Month to date heating degree days 0 0  
Since 1 June heating degree days 18 35  
Since 1 July heating degree days 0 0  
Cooling Degree Days 8 8  
Month to date cooling degree days 358 215  
Year to date cooling degree days 677 401  
Since 1 June cooling degree days 530 358  
Growing Degree Days 23 (Base 50)    
Moisture  
Dew Point 67 °F    
Average Humidity 83    
Maximum Humidity 97    
Minimum Humidity 69    
Precipitation  
Precipitation 0.28 in 0.14 in 1.76 in (1980)
Month to date precipitation 3.93 3.58  
Year to date precipitation 16.41 22.91  
Sea Level Pressure  
Sea Level Pressure 29.96 in    
Wind  
Wind Speed 3 mph (NW)    
Max Wind Speed 13 mph    
Max Gust Speed 18 mph    
Visibility 7 miles    
Events Fog , Rain , Thunderstorm    
T = Trace of Precipitation, MM = Missing Value Source: NWS Daily Summary

Daily Weather History Graph

Daily Weather History Graph

Search for Another Location

Airport:

Trip Planner

Search our weather history database for the weather conditions in past years. The results will help you decide how hot, cold, wet, or windy it might be!

Date:

Astronomy

Jul. 28, 2012 Rise Set
Actual Time 6:19 AM EDT 8:44 PM EDT
Civil Twilight 5:48 AM EDT 9:14 PM EDT
Nautical Twilight 5:10 AM EDT 9:53 PM EDT
Astronomical Twilight 4:27 AM EDT 10:35 PM EDT
Moon 4:47 PM EDT (7/28) 1:37 AM EDT (7/28)
Length of Visible Light 15h 26m
Length of Day
14h 24m
Waxing Gibbous, 75% of the Moon is Illuminated
Jul 28
Waxing Gibbous
Aug 1
Full
Aug 9
Last Quarter
Aug 17
New
Aug 24
First Quarter

Hourly Weather History & Observations

Time (EDT) Temp. Dew Point Humidity Pressure Visibility Wind Dir Wind Speed Gust Speed Precip Events Conditions
12:07 AM 73.4 °F 66.2 °F 78% 29.87 in 10.0 mi Calm Calm - N/A   Mostly Cloudy
12:53 AM 69.1 °F 66.9 °F 93% 29.88 in 2.5 mi NW 9.2 mph 18.4 mph 0.09 in Rain , Thunderstorm Thunderstorms and Rain
1:00 AM 69.8 °F 66.2 °F 88% 29.90 in 3.0 mi NNW 5.8 mph - 0.01 in Rain , Thunderstorm Thunderstorms and Rain
1:23 AM 69.8 °F 66.2 °F 88% 29.89 in 9.0 mi NNW 3.5 mph - 0.03 in Rain Light Rain
1:50 AM 69.8 °F 66.2 °F 88% 29.88 in 10.0 mi Variable 4.6 mph - 0.03 in Thunderstorm Overcast
1:53 AM 69.1 °F 66.9 °F 93% 29.87 in 10.0 mi SSE 4.6 mph - 0.03 in Thunderstorm Overcast
2:05 AM 69.8 °F 66.2 °F 88% 29.90 in 9.0 mi SSE 5.8 mph - N/A   Mostly Cloudy
2:17 AM 69.8 °F 66.2 °F 88% 29.90 in 9.0 mi Calm Calm - N/A   Mostly Cloudy
2:40 AM 69.8 °F 66.2 °F 88% 29.90 in 6.0 mi SSE 3.5 mph - N/A   Scattered Clouds
2:53 AM 69.1 °F 66.9 °F 93% 29.88 in 7.0 mi Calm Calm - N/A   Scattered Clouds
3:53 AM 69.1 °F 66.9 °F 93% 29.88 in 7.0 mi Calm Calm - N/A   Overcast
4:27 AM 69.8 °F 68.0 °F 94% 29.91 in 6.0 mi Calm Calm - N/A   Overcast
4:38 AM 69.8 °F 68.0 °F 94% 29.91 in 6.0 mi Calm Calm - N/A   Overcast
4:53 AM 69.1 °F 68.0 °F 96% 29.89 in 5.0 mi Calm Calm - N/A   Overcast
5:10 AM 69.8 °F 66.2 °F 88% 29.91 in 6.0 mi Calm Calm - N/A   Mostly Cloudy
5:46 AM 69.8 °F 66.2 °F 88% 29.92 in 6.0 mi Calm Calm - N/A   Mostly Cloudy
5:53 AM 69.1 °F 66.9 °F 93% 29.90 in 5.0 mi Calm Calm - N/A   Overcast
6:43 AM 69.8 °F 66.2 °F 88% 29.93 in 5.0 mi West 4.6 mph - N/A   Overcast
6:53 AM 69.1 °F 66.9 °F 93% 29.91 in 5.0 mi West 3.5 mph - N/A   Overcast
7:53 AM 69.1 °F 66.9 °F 93% 29.95 in 5.0 mi Calm Calm - N/A   Overcast
8:02 AM 69.8 °F 66.2 °F 88% 29.97 in 5.0 mi NW 4.6 mph - N/A   Overcast
8:24 AM 69.8 °F 66.2 °F 88% 29.97 in 5.0 mi Calm Calm - N/A   Overcast
8:53 AM 69.1 °F 66.0 °F 90% 29.97 in 5.0 mi WNW 3.5 mph - N/A   Overcast
9:53 AM 72.0 °F 66.9 °F 84% 29.96 in 6.0 mi WSW 3.5 mph - N/A   Haze
10:44 AM 73.4 °F 68.0 °F 83% 29.98 in 9.0 mi Variable 3.5 mph - N/A   Mostly Cloudy
10:53 AM 73.0 °F 66.0 °F 79% 29.97 in 10.0 mi WNW 3.5 mph - N/A   Mostly Cloudy
11:44 AM 75.2 °F 66.2 °F 73% 30.00 in 10.0 mi Variable 4.6 mph - N/A   Mostly Cloudy
11:53 AM 75.9 °F 66.9 °F 74% 29.98 in 10.0 mi Variable 3.5 mph - N/A   Mostly Cloudy
12:53 PM 73.0 °F 64.9 °F 76% 29.99 in 10.0 mi West 4.6 mph - N/A   Overcast
1:53 PM 77.0 °F 66.0 °F 69% 29.97 in 10.0 mi SW 4.6 mph - N/A   Mostly Cloudy
2:53 PM 73.9 °F 66.0 °F 76% 29.98 in 10.0 mi NW 9.2 mph - 0.01 in   Mostly Cloudy
3:12 PM 75.2 °F 66.2 °F 73% 29.99 in 10.0 mi NW 9.2 mph - N/A Thunderstorm Partly Cloudy
3:30 PM 75.2 °F 66.2 °F 73% 30.00 in 10.0 mi Variable 6.9 mph - N/A   Mostly Cloudy
4:11 PM 75.2 °F 66.2 °F 73% 30.00 in 10.0 mi NW 10.4 mph - 0.00 in Thunderstorm Unknown
4:33 PM 77.0 °F 66.2 °F 69% 30.01 in 10.0 mi NW 11.5 mph - 0.00 in   Mostly Cloudy
4:53 PM 77.0 °F 66.9 °F 71% 30.00 in 10.0 mi NNW 9.2 mph - 0.00 in   Mostly Cloudy
5:51 PM 69.8 °F 66.2 °F 88% 30.03 in 0.8 mi Variable 3.5 mph - 0.21 in Rain Heavy Rain
5:53 PM 69.1 °F 66.0 °F 90% 30.01 in 0.5 mi Calm Calm - 0.25 in Fog , Rain Heavy Rain
6:01 PM 69.8 °F 66.2 °F 88% 30.03 in 2.0 mi East 4.6 mph - 0.00 in Rain Light Rain
6:08 PM 71.6 °F 68.0 °F 88% 30.03 in 10.0 mi NE 3.5 mph - 0.00 in   Overcast
6:53 PM 73.9 °F 68.0 °F 82% 30.01 in 10.0 mi Calm Calm - 0.00 in   Scattered Clouds
7:53 PM 73.0 °F 70.0 °F 90% 30.01 in 6.0 mi Calm Calm - N/A   Scattered Clouds
8:53 PM 73.0 °F 68.0 °F 84% 30.03 in 10.0 mi North 5.8 mph - N/A   Overcast
9:53 PM 72.0 °F 68.0 °F 87% 30.05 in 10.0 mi Calm Calm - N/A   Mostly Cloudy
10:53 PM 70.0 °F 64.9 °F 84% 30.06 in 10.0 mi North 3.5 mph - N/A   Mostly Cloudy
11:53 PM 69.1 °F 64.0 °F 84% 30.06 in 10.0 mi North 3.5 mph - N/A   Clear